Location: *
(33.8649°S, 62.1526°E)
Time: 13:15:46
(UTC+00:00)

Cosmos 407 Rocket - Pass Details

Date: 17 January 2021
Orbit: 744 x 786 km, 74.0° (Epoch: 02 March)

Event Time Altitude Azimuth Distance (km) Brightness Sun altitude
Exits shadow 21:50:23 61° 149° (SSE) 854 3.9 -29.7°
Drops below altitude 10° 21:54:40 10° 161° (SSE) 2,293 6.9 -29.3°
Sets 21:57:03 0° 161° (SSE) 3,228 7.9 -29.0°
